sat.trackr.live / text

‹ back to catalog

QIANFAN-101

NORAD 66043 · 2025-233L

PAYLOAD ACTIVE UNKNOWN

§ Identity

Operator
Country
PRC
Launch date
2025-10-17
Launch site
TAISC
Launch vehicle
Mass (kg)
RCS (m²)

External: N2YO · Heavens-Above · Gunter

§ Orbital elements

Epoch: 2026-05-25T03:36:57.972672Z

Period
100.93 min
Inclination
89.0020°
Eccentricity
0.0013501
Mean motion
14.26793161 rev/d
Perigee alt
792.8 km
Apogee alt
812.2 km
Semi-major
7,180.6 km
B*
9.3365e-5
RAAN
43.2105°
Arg perigee
212.4666°
Mean anomaly
147.5698°
Rev number
3,134

§ Raw data

QIANFAN-1011 66043U 25233L   26145.15067098  .00000241  00000+0  93365-4 0  99942 66043  89.0020  43.2105 0013501 212.4666 147.5698 14.26793161 31343

JSON: /api/v1/satellites/66043 · /tle

For live sub-satellite position, see the globe view (requires WebGL).

§ Visibility from observer

Set your observer location to see the next 7 days of passes ≥ 10°. The values pass through the URL so the page stays shareable.

No JS? Fill the form by hand. The geolocation button needs JavaScript.